Погода в Большой Коше

Россия / Тверская область     56°44′25″N   33°43′23″E
В апреле 2022 года жителям России запретили посещать сайт meteo.paraplan.net по решению Генеральной прокуратуры. Аудитория сайта уменьшилась в 10 раз. Владельцы сайта не видят смысла в поддержке погодного сервера в таких условиях. Сайт будет закрыт в октябре.
темп.,
°C
ветер,
м/с
пор.,
м/с
влажн.,
%
обл.,
%
осадки,
мм/ч
давл.,
гПа
погр.,
м
5 октября, ср
ср500:00+3ю1297100 0.4 1008538
03:00+4ююз1196100 0.7 1009147
06:00+4зсз2495100 0.1 1010526
09:00+4зсз2492100 0.2 1011369
12:00+6зсз358289 0.1 1013789
15:00+8зсз357683 0.3 1014962
18:00+6зюз2391100 0.1 101649
21:00+6зюз27967 0.1 1016264
6 октября, чт
чт600:00+5юз2598100 0.2 1017171
03:00+7ююз2699100 0.4 1017237
06:00+7ююз2799100 0.0 1016284
09:00+8ююз3898100 0.0 1016305
12:00+11юз488887 0.0 1015522
15:00+13юз498261 0.0 1013804
18:00+11юз412880 0.0 1013578
21:00+11зюз51588100 0.0 1013722
7 октября, пт
пт700:00+11з6138322 0.1 1014926
03:00+9з5138948 0.1 1016861
06:00+10з51279100 0.1 10181340
09:00+10з61376100 0.1 10191408
12:00+12з611680 0.0 10201287
15:00+13з510660 0.0 10201211
18:00+10з410775 0.0 1022466
21:00+7юз2109320 0.0 1023240
8 октября, сб
сб800:00+7юз3109631 0.0 1022305
03:00+7юз3119658 0.0 1022318
06:00+7юз3119577 0.0 1021328
09:00+8юз4128453 0.0 1020424
12:00+12юз5116793 0.0 1019820
15:00+13ююз51263100 0.0 10171066
18:00+10ююз51371100 0.0 1015710
21:00+10ююз51478100 0.0 1014713
9 октября, вс
вс900:00+10юз51381100 0.0 1013643
03:00+9юз3889100 0.3 1013465
06:00+8ююз3996100 1.6 1012450
09:00+9юз3997100 1.8 1013665
12:00+10з4884100 0.3 1014790
15:00+8з4986100 0.5 1016718
18:00+8з4108376 0.1 1017532
21:00+6зюз310920 0.1 1018378